TimeCDT,TemperatureF,Dew PointF,Humidity,Sea Level PressureIn,VisibilityMPH,Wind Direction,Wind SpeedMPH,Gust SpeedMPH,PrecipitationIn,Events,Conditions,WindDirDegrees,DateUTC
12:15 AM,40.1,32.0,73,30.12,10.0,SSW,6.9,-,N/A,,Clear,210,2013-04-25 05:15:00
12:35 AM,40.1,32.0,73,30.12,10.0,SSW,4.6,-,N/A,,Clear,210,2013-04-25 05:35:00
12:55 AM,39.9,32.0,73,30.11,10.0,SSW,8.1,-,N/A,,Clear,210,2013-04-25 05:55:00
1:15 AM,40.3,31.8,72,30.11,10.0,SSW,6.9,-,N/A,,Clear,210,2013-04-25 06:15:00
1:35 AM,41.0,31.6,69,30.11,10.0,SSW,8.1,-,N/A,,Clear,210,2013-04-25 06:35:00
1:55 AM,41.2,31.3,68,30.10,10.0,SSW,8.1,-,N/A,,Clear,210,2013-04-25 06:55:00
2:15 AM,41.2,31.5,68,30.09,10.0,SSW,8.1,-,N/A,,Clear,210,2013-04-25 07:15:00
2:35 AM,41.0,31.8,70,30.09,10.0,SSW,8.1,-,N/A,,Clear,210,2013-04-25 07:35:00
2:55 AM,40.6,32.0,71,30.08,10.0,SSW,8.1,-,N/A,,Clear,210,2013-04-25 07:55:00
3:15 AM,41.0,32.0,70,30.09,10.0,SW,6.9,-,N/A,,Scattered Clouds,220,2013-04-25 08:15:00
3:35 AM,41.5,32.0,69,30.09,10.0,SW,9.2,-,N/A,,Mostly Cloudy,230,2013-04-25 08:35:00
3:55 AM,41.5,32.9,71,30.09,10.0,SW,8.1,-,N/A,,Drizzle,230,2013-04-25 08:55:00
4:15 AM,41.2,33.1,73,30.09,10.0,WSW,5.8,-,N/A,,Overcast,240,2013-04-25 09:15:00
4:35 AM,41.2,32.7,72,30.08,10.0,SW,5.8,-,N/A,,Mostly Cloudy,230,2013-04-25 09:35:00
4:55 AM,41.2,32.4,71,30.08,10.0,WSW,9.2,-,N/A,,Mostly Cloudy,240,2013-04-25 09:55:00
5:15 AM,40.8,32.2,71,30.09,10.0,SW,11.5,-,N/A,,Scattered Clouds,230,2013-04-25 10:15:00
5:35 AM,41.0,32.5,72,30.09,10.0,WSW,10.4,-,N/A,,Mostly Cloudy,240,2013-04-25 10:35:00
5:55 AM,40.3,32.9,75,30.09,10.0,WSW,6.9,-,N/A,,Scattered Clouds,240,2013-04-25 10:55:00
6:15 AM,40.6,33.4,75,30.10,10.0,WSW,9.2,-,N/A,,Scattered Clouds,240,2013-04-25 11:15:00
6:35 AM,41.2,34.0,76,30.11,10.0,WSW,9.2,-,N/A,,Mostly Cloudy,240,2013-04-25 11:35:00
6:55 AM,41.5,34.9,77,30.11,10.0,WSW,11.5,-,N/A,,Mostly Cloudy,240,2013-04-25 11:55:00
7:15 AM,41.2,35.6,81,30.12,10.0,WSW,9.2,-,N/A,,Overcast,250,2013-04-25 12:15:00
7:35 AM,42.3,36.1,79,30.13,10.0,West,8.1,-,N/A,,Mostly Cloudy,260,2013-04-25 12:35:00
7:55 AM,42.6,34.3,73,30.14,10.0,West,15.0,23.0,N/A,,Scattered Clouds,270,2013-04-25 12:55:00
8:15 AM,42.8,33.4,70,30.14,10.0,West,12.7,23.0,N/A,,Clear,270,2013-04-25 13:15:00
8:35 AM,42.3,32.5,68,30.15,10.0,West,16.1,24.2,N/A,,Clear,270,2013-04-25 13:35:00
8:55 AM,42.3,32.0,67,30.17,10.0,West,15.0,23.0,N/A,,Scattered Clouds,270,2013-04-25 13:55:00
9:15 AM,42.1,31.1,65,30.18,10.0,West,13.8,21.9,N/A,,Scattered Clouds,280,2013-04-25 14:15:00
9:35 AM,42.8,31.1,63,30.19,10.0,West,11.5,17.3,N/A,,Scattered Clouds,270,2013-04-25 14:35:00
9:55 AM,43.5,32.2,64,30.20,10.0,West,15.0,21.9,N/A,,Mostly Cloudy,270,2013-04-25 14:55:00
10:15 AM,44.1,32.7,64,30.21,10.0,WNW,11.5,19.6,N/A,,Mostly Cloudy,300,2013-04-25 15:15:00
10:35 AM,42.8,31.8,65,30.23,10.0,West,12.7,-,N/A,,Mostly Cloudy,280,2013-04-25 15:35:00
10:55 AM,44.2,32.2,63,30.24,10.0,West,15.0,20.7,N/A,,Mostly Cloudy,280,2013-04-25 15:55:00
11:15 AM,44.2,31.8,62,30.24,10.0,West,13.8,19.6,N/A,,Mostly Cloudy,260,2013-04-25 16:15:00
11:35 AM,44.1,31.8,62,30.25,10.0,WNW,11.5,17.3,N/A,,Mostly Cloudy,290,2013-04-25 16:35:00
11:55 AM,45.0,31.3,59,30.25,10.0,WNW,10.4,17.3,N/A,,Mostly Cloudy,300,2013-04-25 16:55:00
12:15 PM,46.8,30.9,54,30.26,10.0,West,12.7,16.1,N/A,,Mostly Cloudy,270,2013-04-25 17:15:00
12:35 PM,45.9,28.6,51,30.27,10.0,WNW,9.2,-,N/A,,Mostly Cloudy,290,2013-04-25 17:35:00
12:55 PM,45.9,28.2,50,30.27,10.0,West,9.2,-,N/A,,Mostly Cloudy,270,2013-04-25 17:55:00
1:15 PM,47.3,28.2,48,30.27,10.0,West,9.2,16.1,N/A,,Scattered Clouds,270,2013-04-25 18:15:00
1:35 PM,46.8,26.8,46,30.28,10.0,West,9.2,16.1,N/A,,Scattered Clouds,270,2013-04-25 18:35:00
1:55 PM,48.0,27.1,44,30.28,10.0,West,10.4,-,N/A,,Clear,260,2013-04-25 18:55:00
2:15 PM,47.3,27.1,46,30.28,10.0,WNW,9.2,-,N/A,,Mostly Cloudy,300,2013-04-25 19:15:00
2:35 PM,48.2,27.9,45,30.28,10.0,WNW,9.2,-,N/A,,Mostly Cloudy,300,2013-04-25 19:35:00
2:55 PM,47.7,27.9,46,30.29,10.0,WNW,12.7,16.1,N/A,,Mostly Cloudy,290,2013-04-25 19:55:00
3:15 PM,48.2,28.2,46,30.29,10.0,WNW,10.4,16.1,N/A,,Mostly Cloudy,290,2013-04-25 20:15:00
3:35 PM,49.3,27.9,44,30.27,10.0,West,5.8,-,N/A,,Scattered Clouds,260,2013-04-25 20:35:00
3:55 PM,50.4,28.8,43,30.28,10.0,West,9.2,-,N/A,,Scattered Clouds,270,2013-04-25 20:55:00
4:15 PM,49.5,28.2,44,30.28,10.0,West,10.4,-,N/A,,Scattered Clouds,280,2013-04-25 21:15:00
4:35 PM,50.2,28.0,42,30.28,10.0,West,6.9,-,N/A,,Scattered Clouds,270,2013-04-25 21:35:00
4:55 PM,50.4,28.2,42,30.28,10.0,West,10.4,-,N/A,,Scattered Clouds,280,2013-04-25 21:55:00
5:15 PM,50.2,27.3,41,30.28,10.0,West,10.4,-,N/A,,Scattered Clouds,280,2013-04-25 22:15:00
5:35 PM,50.5,27.1,40,30.28,10.0,West,5.8,-,N/A,,Scattered Clouds,270,2013-04-25 22:35:00
5:55 PM,50.4,25.9,39,30.28,10.0,West,6.9,-,N/A,,Clear,270,2013-04-25 22:55:00
6:15 PM,50.2,26.2,39,30.28,10.0,West,4.6,-,N/A,,Clear,270,2013-04-25 23:15:00
6:35 PM,50.4,25.9,39,30.28,10.0,West,3.5,-,N/A,,Clear,270,2013-04-25 23:35:00
6:55 PM,50.0,25.9,39,30.29,10.0,West,6.9,-,N/A,,Clear,270,2013-04-25 23:55:00
7:15 PM,49.1,23.4,36,30.29,10.0,WSW,3.5,-,N/A,,Clear,250,2013-04-26 00:15:00
7:35 PM,48.4,24.1,39,30.29,10.0,Calm,Calm,-,N/A,,Clear,0,2013-04-26 00:35:00
7:55 PM,47.5,24.8,41,30.29,10.0,Calm,Calm,-,N/A,,Clear,0,2013-04-26 00:55:00
8:15 PM,41.4,31.5,68,30.30,10.0,Calm,Calm,-,N/A,,Clear,0,2013-04-26 01:15:00
8:35 PM,41.7,30.9,66,30.31,10.0,Calm,Calm,-,N/A,,Clear,0,2013-04-26 01:35:00
8:55 PM,40.6,28.8,63,30.31,10.0,Calm,Calm,-,N/A,,Clear,0,2013-04-26 01:55:00
9:15 PM,38.5,28.8,68,30.31,10.0,Calm,Calm,-,N/A,,Clear,0,2013-04-26 02:15:00
9:35 PM,36.7,29.3,75,30.31,10.0,Calm,Calm,-,N/A,,Clear,0,2013-04-26 02:35:00
9:55 PM,38.1,31.6,77,30.32,10.0,Calm,Calm,-,N/A,,Clear,0,2013-04-26 02:55:00
10:15 PM,37.8,33.6,85,30.32,10.0,Calm,Calm,-,N/A,,Clear,0,2013-04-26 03:15:00
10:35 PM,36.5,33.1,87,30.32,10.0,Calm,Calm,-,N/A,,Clear,0,2013-04-26 03:35:00
10:55 PM,37.2,30.9,78,30.33,10.0,Calm,Calm,-,N/A,,Clear,0,2013-04-26 03:55:00
11:15 PM,35.8,31.3,84,30.33,10.0,Calm,Calm,-,N/A,,Clear,0,2013-04-26 04:15:00
11:35 PM,35.1,31.8,88,30.32,10.0,Calm,Calm,-,N/A,,Clear,0,2013-04-26 04:35:00
11:55 PM,36.0,30.7,81,30.33,10.0,Calm,Calm,-,N/A,,Clear,0,2013-04-26 04:55:00